Location: Peterborough
(44.3091°N, 78.3197°W)
Time: 17:59:49
(UTC-04:00)

Explorer 7 - Pass Details

Date: 25 March 2023
Orbit: 477 x 653 km, 50.3° (Epoch: 04 June)

Event Time Altitude Azimuth Distance (km) Brightness Sun altitude
Rises 18:05:01 0° 236° (SW) 2,907 11.8 14.6°
Reaches altitude 10° 18:07:23 10° 234° (SW) 1,978 11.1 14.2°
Maximum altitude 18:11:56 77° 149° (SSE) 614 7.2 13.4°
Drops below altitude 10° 18:16:13 10° 64° (ENE) 1,873 9.0 12.6°
Sets 18:18:24 0° 63° (ENE) 2,740 9.8 12.2°
